FENGYUN 1C DEB, 33722

Orbit data source: Space-Track

FENGYUN 1C DEB, 33722 is space debris in SSO originally from a launch on Mon, 10 May 1999 UTC launched from the Taiyaun Space Center, China (TSC). Fengyun 1C debris stems from the Chinese weather satellite Fengyun-1C, which was intentionally destroyed by a Chinese anti-satellite missile in 2007. This event dramatically increased the amount of space debris, with thousands of trackable fragments posing hazards to satellites and human spaceflight. The Fengyun 1C debris cloud has become a focal point in discussions about space sustainability and the need for international regulations to prevent the creation of new debris.

Loading next visibility...
Identifier
33722, 1999-025DHK
Orbit
SSO
Country
Flag of CNCN / PRC
Related business
Manufacturer
Unknown
Mission
Spacecraft
Bus & Motor
Unknown
Mass
Unknown
Launch date (UTC)
1999-05-10 (27 years ago)
Launch vehicle
Unknown
Launch site
Taiyaun Space Center, China (TSC)
Object type
Payload
Rocket body
Debris
Shape & HBR
Unknown shape, 0.1 m
Radar Cross Section
Small (<0.1 m²)

Expand to show TLE details & history
Last TLE update: 12 hours ago

TLE from 12 hours ago
0 FENGYUN 1C DEB
1 33722U 99025DHK 25353.47699498  .00001135  00000-0  47577-3 0  9999
2 33722  98.5737   7.6417 0158398 232.0902 126.5866 14.21378266922439
Epoch: 2025-12-19T11:26Z
TLE epoch observation values (Epoch: 2025-12-19T11:26:52.366Z)
Latitude
-0.00006°
Longitude
107.60593°
Altitude
892.743 km
Speed
7.37 km/s
True Right ascension
00h 30m 34s
True Declination
0° 00' 00"
Sunlit
Object was in daylight at epoch
Visualization orbit readout
Latitude
Unknown
Longitude
Unknown
Altitude
Unknown
Speed
Unknown
Apparent Right ascension
Unknown
Apparent Declination
Unknown
Sunlit
N/A
Visualization observer readout
Local Sidereal Time
22:19:44
Azimuth
Unknown
Elevation
Unknown
Doppler factor
Unknown
Orbital elements
Apogee altitude
931.827 km
Perigee altitude
703.862 km
Semi-major axis
7,195.982 km
Eccentricity
0.01584
Inclination
98.5737°
RAAN
7.6417°
Arg. of periapsis
232.0902°
True anomaly
128.02689°
Mean anomaly
126.5866°
Eccentric anomaly
127.30845°
Mean motion
3.55556 °/min
Orbital period
101.25 mins
BSTAR
0.00047577
Loading maneuver chart data...
Computing Atmospheric mass density...

Documentation

Showing up to 5 results
|